Overview Statistics Trail Chart Weather Telemetry Raw packets
 

This is the latest recevied weather packets stored in our database for station/object KQ7A. If no packets are shown the sender has not sent any weather packets the latest 10 day(s).

<< 53 54 55 56 57 58 59 >>
Time Temp. Humidity Pressure Rain* Wind** Luminosity Snow
1788316614 17.22° C 22% 1015.1 hPa 0 mm - 0 W/m² -
1788316309 18.33° C 21% 1014.8 hPa 0 mm - 1 W/m² -
1788316009 17.78° C 21% 1014.7 hPa 0 mm - 3 W/m² -
1788315704 18.33° C 22% 1015.1 hPa 0 mm - 5 W/m² -
1788315400 18.33° C 21% 1015.1 hPa 0 mm - 8 W/m² -
1788315095 18.33° C 22% 1014.8 hPa 0 mm - 10 W/m² -
1788314791 18.33° C 22% 1014.8 hPa 0 mm - 12 W/m² -
1788314486 17.78° C 22% 1014.7 hPa 0 mm - 14 W/m² -
1788314182 18.33° C 24% 1015.2 hPa 0 mm - 17 W/m² -
1788313878 18.89° C 21% 1014.8 hPa 0 mm - 18 W/m² -
1788313573 18.89° C 23% 1015.1 hPa 0 mm - 19 W/m² -
1788313269 18.89° C 23% 1015.1 hPa 0 mm - 21 W/m² -
1788312968 18.89° C 22% 1015.1 hPa 0 mm - 23 W/m² -
1788312663 19.44° C 23% 1015 hPa 0 mm - 25 W/m² -
1788312359 18.89° C 22% 1015.4 hPa 0 mm - 25 W/m² -
1788312054 19.44° C 22% 1015 hPa 0 mm - 28 W/m² -
1788311749 19.44° C 23% 1015.1 hPa 0 mm - 28 W/m² -
1788311448 20° C 20% 1015.4 hPa 0 mm - 30 W/m² -
1788311143 19.44° C 21% 1015 hPa 0 mm - 31 W/m² -
1788310839 19.44° C 21% 1014.8 hPa 0 mm - 32 W/m² -
1788310537 20° C 22% 1015.1 hPa 0 mm - 34 W/m² -
1788310233 20° C 21% 1015.1 hPa 0 mm - 36 W/m² -
1788309932 20° C 21% 1015.1 hPa 0 mm - 39 W/m² -
1788309627 20.56° C 20% 1015 hPa 0 mm - 59 W/m² -
1788309322 21.11° C 21% 1015 hPa 0 mm - 235 W/m² -

* Rain latest hour (hover to see other rain measurements)
** Current wind speed in m/s (hover to see current wind gust speed)